timestamp,wind_dir_avg,wind_spd_avg,wind_spd_max_dir,wind_spd_gust,battery_voltage,lat,long
2021-11-08 00:04:00+00:00,235.0,7.34,236.0,8.85,12.57,47.59359,-54.27349
2021-11-08 00:14:01+00:00,234.0,6.85,234.0,8.12,12.57,47.59359,-54.27349
2021-11-08 00:24:01+00:00,241.0,8.26,247.0,9.5,12.57,47.59359,-54.27349
2021-11-08 00:34:01+00:00,245.0,7.85,244.0,8.99,12.57,47.59359,-54.27349
2021-11-08 00:44:01+00:00,240.0,8.91,239.0,10.16,12.57,47.59359,-54.27349
2021-11-08 00:54:01+00:00,234.0,7.55,236.0,8.7,12.57,47.59359,-54.27349
2021-11-08 01:04:01+00:00,239.0,7.23,239.0,7.98,12.57,47.59359,-54.27349
2021-11-08 01:14:00+00:00,236.0,7.24,234.0,8.12,12.57,47.59359,-54.27349
2021-11-08 01:24:00+00:00,240.0,6.22,239.0,7.88,12.57,47.59359,-54.27349
2021-11-08 01:34:00+00:00,238.0,7.1,238.0,8.2,12.57,47.59359,-54.27349
2021-11-08 01:44:00+00:00,239.0,6.69,238.0,7.55,12.57,47.59359,-54.27349
2021-11-08 01:54:00+00:00,240.0,7.14,242.0,8.82,12.57,47.59359,-54.27349
2021-11-08 02:04:00+00:00,239.0,7.58,238.0,8.4,12.57,47.59359,-54.27349
2021-11-08 02:14:00+00:00,240.0,7.79,239.0,8.8,12.57,47.59359,-54.27349
2021-11-08 02:24:00+00:00,238.0,6.76,237.0,7.38,12.57,47.59359,-54.27349
2021-11-08 02:34:00+00:00,242.0,6.25,236.0,7.69,12.57,47.59359,-54.27349
2021-11-08 02:44:00+00:00,235.0,7.52,235.0,8.25,12.57,47.59359,-54.27349
2021-11-08 02:54:00+00:00,241.0,7.65,240.0,8.68,12.57,47.59359,-54.27349
2021-11-08 03:04:00+00:00,243.0,7.5,243.0,8.27,12.57,47.59359,-54.27349
2021-11-08 03:14:01+00:00,252.0,7.63,253.0,8.48,12.57,47.59359,-54.27349
2021-11-08 03:24:01+00:00,252.0,6.83,254.0,7.89,12.57,47.59359,-54.27349
2021-11-08 03:34:01+00:00,243.0,7.56,244.0,8.48,12.57,47.59359,-54.27349
2021-11-08 03:44:01+00:00,247.0,6.69,250.0,8.36,12.57,47.59359,-54.27349
2021-11-08 03:54:01+00:00,244.0,6.8,241.0,7.58,12.57,47.59359,-54.27349
2021-11-08 04:04:01+00:00,246.0,6.51,247.0,7.49,12.57,47.59359,-54.27349
2021-11-08 04:14:00+00:00,246.0,6.93,250.0,7.58,12.49,47.59359,-54.27349
2021-11-08 04:24:00+00:00,247.0,7.57,247.0,8.39,12.49,47.59359,-54.27349
2021-11-08 04:34:00+00:00,245.0,7.29,243.0,8.59,12.49,47.59359,-54.27349
2021-11-08 04:44:00+00:00,242.0,6.93,242.0,7.75,12.49,47.59359,-54.27349
2021-11-08 04:54:00+00:00,243.0,6.76,244.0,7.56,12.49,47.59359,-54.27349
2021-11-08 05:04:00+00:00,237.0,5.87,242.0,6.32,12.49,47.59359,-54.27349
2021-11-08 05:14:00+00:00,230.0,5.76,231.0,6.49,12.49,47.59359,-54.27349
2021-11-08 05:24:00+00:00,244.0,6.85,242.0,7.53,12.49,47.59359,-54.27349
2021-11-08 05:34:00+00:00,248.0,7.33,255.0,8.48,12.49,47.59359,-54.27349
2021-11-08 05:44:00+00:00,244.0,5.99,252.0,6.74,12.49,47.59359,-54.27349
2021-11-08 05:54:00+00:00,234.0,5.34,233.0,6.18,12.49,47.59359,-54.27349
2021-11-08 06:04:00+00:00,233.0,7.07,239.0,9.01,12.49,47.59359,-54.27349
2021-11-08 06:14:01+00:00,236.0,6.35,242.0,7.32,12.49,47.59359,-54.27349
2021-11-08 06:24:01+00:00,231.0,6.72,243.0,7.61,12.49,47.59359,-54.27349
2021-11-08 06:34:01+00:00,231.0,5.72,229.0,6.64,12.49,47.59359,-54.27349
2021-11-08 06:44:01+00:00,234.0,6.39,237.0,8.0,12.49,47.59359,-54.27349
2021-11-08 06:54:01+00:00,228.0,6.25,230.0,7.25,12.49,47.59359,-54.27349
2021-11-08 07:04:01+00:00,223.0,5.94,222.0,6.53,12.49,47.59359,-54.27349
2021-11-08 07:14:00+00:00,234.0,4.99,244.0,5.77,12.49,47.59359,-54.27349
2021-11-08 07:24:00+00:00,231.0,6.46,238.0,7.68,12.49,47.59359,-54.27349
2021-11-08 07:34:00+00:00,226.0,6.23,225.0,6.99,12.49,47.59359,-54.27349
2021-11-08 07:44:00+00:00,231.0,5.98,238.0,7.37,12.49,47.59359,-54.27349
2021-11-08 07:54:00+00:00,228.0,5.61,224.0,6.38,12.49,47.59359,-54.27349
2021-11-08 08:04:00+00:00,227.0,5.02,227.0,5.71,12.49,47.59359,-54.27349
2021-11-08 08:14:00+00:00,239.0,5.42,238.0,6.03,12.49,47.59359,-54.27349
2021-11-08 08:24:00+00:00,234.0,5.66,235.0,6.46,12.49,47.59359,-54.27349
2021-11-08 08:34:00+00:00,231.0,5.49,229.0,6.29,12.49,47.59359,-54.27349
2021-11-08 08:44:00+00:00,240.0,5.65,242.0,6.08,12.49,47.59359,-54.27349
2021-11-08 08:54:00+00:00,241.0,4.8,238.0,5.17,12.49,47.59359,-54.27349
2021-11-08 09:04:00+00:00,236.0,3.86,235.0,4.22,12.49,47.59359,-54.27349
2021-11-08 09:14:01+00:00,234.0,4.03,233.0,4.75,12.41,47.59359,-54.27349
2021-11-08 09:24:01+00:00,249.0,4.06,250.0,4.59,12.41,47.59359,-54.27349
2021-11-08 09:34:01+00:00,234.0,4.37,233.0,4.84,12.41,47.59359,-54.27349
2021-11-08 09:44:01+00:00,230.0,4.96,240.0,6.1,12.41,47.59359,-54.27349
2021-11-08 09:54:01+00:00,230.0,4.12,214.0,5.9,12.41,47.59359,-54.27349
2021-11-08 10:04:01+00:00,228.0,5.16,226.0,5.8,12.41,47.59359,-54.27349
2021-11-08 10:14:00+00:00,227.0,4.8,229.0,5.31,12.41,47.59359,-54.27349
2021-11-08 10:24:00+00:00,232.0,4.37,233.0,5.03,12.41,47.59359,-54.27349
2021-11-08 10:34:00+00:00,236.0,4.26,234.0,4.86,12.41,47.59359,-54.27349
2021-11-08 10:44:00+00:00,228.0,5.27,225.0,6.23,12.41,47.59359,-54.27349
2021-11-08 10:54:00+00:00,223.0,5.06,225.0,5.56,12.41,47.59359,-54.27349
2021-11-08 11:04:00+00:00,237.0,4.46,239.0,5.08,12.41,47.59359,-54.27349
2021-11-08 11:14:00+00:00,248.0,5.45,247.0,6.04,12.49,47.59359,-54.27349
2021-11-08 11:24:00+00:00,247.0,5.99,247.0,6.62,12.49,47.59359,-54.27349
2021-11-08 11:34:00+00:00,242.0,5.55,233.0,6.3,12.49,47.59359,-54.27349
2021-11-08 11:44:00+00:00,238.0,6.55,242.0,7.29,12.49,47.59359,-54.27349
2021-11-08 11:54:00+00:00,241.0,6.47,243.0,7.63,12.49,47.59359,-54.27349
2021-11-08 12:04:00+00:00,241.0,6.01,241.0,6.5,12.49,47.59359,-54.27349
2021-11-08 12:14:00+00:00,243.0,5.68,247.0,6.34,14.24,47.59359,-54.27349
2021-11-08 12:24:00+00:00,236.0,5.92,233.0,6.74,14.24,47.59359,-54.27349
2021-11-08 12:34:00+00:00,249.0,5.71,252.0,6.34,14.24,47.59359,-54.27349
2021-11-08 12:44:00+00:00,251.0,6.39,251.0,7.36,14.24,47.59359,-54.27349
2021-11-08 12:54:00+00:00,246.0,6.46,246.0,8.18,14.24,47.59359,-54.27349
2021-11-08 13:04:00+00:00,244.0,7.61,252.0,9.09,14.24,47.59359,-54.27349
2021-11-08 13:14:01+00:00,247.0,8.16,255.0,9.38,13.92,47.59359,-54.27349
2021-11-08 13:24:01+00:00,254.0,7.08,259.0,7.64,13.92,47.59359,-54.27349
2021-11-08 13:34:01+00:00,254.0,7.06,253.0,7.68,13.92,47.59359,-54.27349
2021-11-08 13:44:01+00:00,248.0,5.48,247.0,6.32,13.92,47.59359,-54.27349
2021-11-08 13:54:01+00:00,248.0,5.34,250.0,6.19,13.92,47.59359,-54.27349
2021-11-08 14:04:01+00:00,255.0,6.43,257.0,7.08,13.92,47.59359,-54.27349
2021-11-08 14:14:01+00:00,237.0,6.38,238.0,6.85,13.76,47.59359,-54.27349
2021-11-08 14:24:01+00:00,246.0,5.72,239.0,6.8,13.76,47.59359,-54.27349
2021-11-08 14:34:01+00:00,235.0,6.95,236.0,8.43,13.76,47.59359,-54.27349
2021-11-08 14:44:01+00:00,233.0,6.05,235.0,6.88,13.76,47.59359,-54.27349
2021-11-08 14:54:01+00:00,231.0,5.02,228.0,5.83,13.76,47.59359,-54.27349
2021-11-08 15:04:01+00:00,227.0,5.81,229.0,7.0,13.76,47.59359,-54.27349
2021-11-08 15:14:00+00:00,225.0,5.81,229.0,6.4,13.76,47.59359,-54.27349
2021-11-08 15:24:00+00:00,225.0,4.3,223.0,5.08,13.76,47.59359,-54.27349
2021-11-08 15:34:00+00:00,228.0,6.88,229.0,8.03,13.76,47.59359,-54.27349
2021-11-08 15:44:00+00:00,228.0,6.38,229.0,7.84,13.76,47.59359,-54.27349
2021-11-08 15:54:00+00:00,213.0,6.68,209.0,7.62,13.76,47.59359,-54.27349
2021-11-08 16:04:00+00:00,204.0,8.57,205.0,9.61,13.76,47.59359,-54.27349
2021-11-08 16:14:01+00:00,211.0,7.45,213.0,8.28,13.92,47.59359,-54.27349
2021-11-08 16:24:01+00:00,209.0,8.58,209.0,9.23,13.92,47.59359,-54.27349
2021-11-08 16:34:01+00:00,209.0,7.66,202.0,8.94,13.92,47.59359,-54.27349
2021-11-08 16:44:01+00:00,210.0,8.21,213.0,9.07,13.92,47.59359,-54.27349
2021-11-08 16:54:01+00:00,208.0,7.55,210.0,8.61,13.92,47.59359,-54.27349
2021-11-08 17:04:01+00:00,210.0,8.37,211.0,9.3,13.92,47.59359,-54.27349
2021-11-08 17:14:00+00:00,211.0,9.33,211.0,10.53,13.68,47.59359,-54.27349
2021-11-08 17:24:00+00:00,211.0,8.4,210.0,9.26,13.68,47.59359,-54.27349
2021-11-08 17:34:00+00:00,210.0,9.13,204.0,10.38,13.68,47.59359,-54.27349
2021-11-08 17:44:00+00:00,210.0,8.99,207.0,10.23,13.68,47.59359,-54.27349
2021-11-08 17:54:00+00:00,208.0,9.64,214.0,10.99,13.68,47.59359,-54.27349
2021-11-08 18:04:00+00:00,212.0,9.97,217.0,11.33,13.68,47.59359,-54.27349
2021-11-08 18:14:01+00:00,210.0,10.42,207.0,11.43,13.53,47.59359,-54.27349
2021-11-08 18:24:01+00:00,215.0,9.44,217.0,10.74,13.53,47.59359,-54.27349
2021-11-08 18:34:01+00:00,215.0,7.91,214.0,9.67,13.53,47.59359,-54.27349
2021-11-08 18:44:01+00:00,222.0,7.86,226.0,9.46,13.53,47.59359,-54.27349
2021-11-08 18:54:01+00:00,218.0,8.12,216.0,9.09,13.53,47.59359,-54.27349
2021-11-08 19:04:01+00:00,218.0,7.5,212.0,8.32,13.53,47.59359,-54.27349
2021-11-08 19:14:01+00:00,218.0,7.15,219.0,8.28,13.76,47.59359,-54.27349
2021-11-08 19:24:01+00:00,224.0,8.12,225.0,9.72,13.76,47.59359,-54.27349
2021-11-08 19:34:01+00:00,222.0,7.71,224.0,9.03,13.76,47.59359,-54.27349
2021-11-08 19:44:01+00:00,222.0,7.44,223.0,8.31,13.76,47.59359,-54.27349
2021-11-08 19:54:01+00:00,221.0,7.32,225.0,8.24,13.76,47.59359,-54.27349
2021-11-08 20:04:01+00:00,225.0,6.83,229.0,9.2,13.76,47.59359,-54.27349
2021-11-08 20:14:01+00:00,228.0,7.73,231.0,9.0,13.13,47.59359,-54.27349
2021-11-08 20:24:01+00:00,226.0,6.97,228.0,8.24,13.13,47.59359,-54.27349
2021-11-08 20:34:01+00:00,233.0,7.66,234.0,8.83,13.13,47.59359,-54.27349
2021-11-08 20:44:01+00:00,230.0,5.9,234.0,6.85,13.13,47.59359,-54.27349
2021-11-08 20:54:01+00:00,231.0,6.35,236.0,7.63,13.13,47.59359,-54.27349
2021-11-08 21:04:01+00:00,232.0,5.58,229.0,6.3,13.13,47.59359,-54.27349
2021-11-08 21:14:01+00:00,238.0,7.92,239.0,8.69,12.65,47.59359,-54.27349
2021-11-08 21:24:01+00:00,235.0,6.15,237.0,6.81,12.65,47.59359,-54.27349
2021-11-08 21:34:01+00:00,234.0,6.19,238.0,7.28,12.65,47.59359,-54.27349
2021-11-08 21:44:01+00:00,231.0,5.44,230.0,6.26,12.65,47.59359,-54.27349
2021-11-08 21:54:01+00:00,237.0,6.48,237.0,7.21,12.65,47.59359,-54.27349
2021-11-08 22:04:01+00:00,238.0,6.58,243.0,7.06,12.65,47.59359,-54.27349
2021-11-08 22:14:00+00:00,238.0,5.81,242.0,6.56,12.65,47.59359,-54.27349
2021-11-08 22:24:00+00:00,239.0,6.5,237.0,7.23,12.65,47.59359,-54.27349
2021-11-08 22:34:00+00:00,238.0,5.84,233.0,6.29,12.65,47.59359,-54.27349
2021-11-08 22:44:00+00:00,235.0,5.93,241.0,6.52,12.65,47.59359,-54.27349
2021-11-08 22:54:00+00:00,227.0,4.45,225.0,4.98,12.65,47.59359,-54.27349
2021-11-08 23:04:00+00:00,224.0,4.93,219.0,5.44,12.65,47.59359,-54.27349
2021-11-08 23:14:00+00:00,232.0,5.0,230.0,5.42,12.57,47.59359,-54.27349
2021-11-08 23:24:00+00:00,233.0,6.33,234.0,6.79,12.57,47.59359,-54.27349
2021-11-08 23:34:00+00:00,229.0,5.05,235.0,5.91,12.57,47.59359,-54.27349
2021-11-08 23:44:00+00:00,226.0,5.69,220.0,6.61,12.57,47.59359,-54.27349
2021-11-08 23:54:00+00:00,231.0,5.77,237.0,6.77,12.57,47.59359,-54.27349
